Location: Unspecified
(0.0000°N, 0.0000°E)
Time: 07:00:25
(UTC+00:00)

Vanguard 2 Rocket - Pass Details

Date: 09 October 2023
Orbit: 552 x 3312 km, 32.9° (Epoch: 06 December)

Event Time Altitude Azimuth Distance (km) Brightness Sun altitude
Rises 13:45:54 0° 315° (NW) 6,932 11.6 59.8°
Reaches altitude 10° 13:50:39 10° 321° (NW) 6,100 11.4 58.6°
Maximum altitude 14:09:57 51° 32° (NNE) 3,747 10.4 53.9°
Drops below altitude 10° 14:25:57 10° 103° (ESE) 5,204 10.5 49.9°
Sets 14:29:33 0° 108° (ESE) 5,902 10.7 49.0°
